User: anonymous   Login
Location: D�derode
(51.8092°N, 10.1065°E)
Time: 20:26:12
(UTC+00:00)
Language:

Cosmos 1812 - Orbit

View from above orbital plane
View from above orbital plane
View from above satellite
View from above satellite

Ground track
Ground track

The orbit data is extracted from the following two-line orbital elements,

1 17295U 87003A   21060.50418172  .00000396  00000-0  19023-4 0  9996
2 17295  82.5114 252.1760 0004691 112.7208 247.4521 15.15859558863645
Epoch (UTC): 01 March 2021 12:06:01
Eccentricity: 0.0004691
inclination: 82.5114°
perigee height: 515 km
apogee height: 521 km
right ascension of ascending node: 252.1760°
argument of perigee: 112.7208°
revolutions per day: 15.15859558
mean anomaly at epoch: 247.4521°
orbit number at epoch: 86364

The dashed part of the orbit path shows where the satellite is in the earth's shadow,  

DLR